Weather History for Wooster, OH

Change the Weather History Date:

Monday, October 31, 2011

  Actual Average Record
Temperature  
Mean Temperature 40 °F -  
Max Temperature 48 °F 54 °F 73 °F (2003)
Min Temperature 32 °F 35 °F 28 °F (2000)
Degree Days  
Heating Degree Days 25    
Moisture  
Dew Point 35 °F    
Average Humidity 85    
Maximum Humidity 100    
Minimum Humidity 61    
Precipitation  
Precipitation 0.02 in - - ()
Sea Level Pressure  
Sea Level Pressure 30.16 in    
Wind  
Wind Speed 4 mph (South)    
Max Wind Speed 12 mph    
Max Gust Speed 17 mph    
Visibility 8 miles    
Events Rain    
Averages and records for this station are not official NWS values.
T = Trace of Precipitation, MM = Missing Value Source: NWS Daily Summary

Daily Weather History Graph

Daily Weather History Graph

Search for Another Location

Airport:

Trip Planner

Search our weather history database for the weather conditions in past years. The results will help you decide how hot, cold, wet, or windy it might be!

Date:

Astronomy

Oct. 31, 2011 Rise Set
Actual Time 7:56 AM EDT 6:25 PM EDT
Civil Twilight 7:28 AM EDT 6:53 PM EDT
Nautical Twilight 6:55 AM EDT 7:25 PM EDT
Astronomical Twilight 6:23 AM EDT 7:57 PM EDT
Moon 1:03 PM EDT (10/31) 10:58 PM EDT (10/31)
Length of Visible Light 11h 25m
Length of Day
10h 28m
Waxing Crescent, 29% of the Moon is Illuminated
Oct 31
Waxing Crescent
Nov 2
First Quarter
Nov 10
Full
Nov 18
Last Quarter
Nov 25
New

Hourly Weather History & Observations

Time (EDT) Temp. Windchill Dew Point Humidity Pressure Visibility Wind Dir Wind Speed Gust Speed Precip Events Conditions
12:56 AM 39.0 °F - 33.1 °F 79% 30.21 in 10.0 mi Calm Calm - N/A   Clear
1:56 AM 35.1 °F - 33.1 °F 92% 30.20 in 10.0 mi Calm Calm - N/A   Clear
2:56 AM 33.1 °F 27.7 °F 30.9 °F 92% 30.19 in 10.0 mi SE 5.8 mph - N/A   Clear
3:56 AM 35.1 °F 32.2 °F 32.0 °F 89% 30.18 in 10.0 mi ESE 3.5 mph - N/A   Partly Cloudy
4:56 AM 37.0 °F 34.5 °F 33.1 °F 86% 30.16 in 10.0 mi ESE 3.5 mph - N/A   Partly Cloudy
5:56 AM 36.0 °F 33.3 °F 34.0 °F 93% 30.16 in 9.0 mi ESE 3.5 mph - N/A   Partly Cloudy
6:56 AM 37.0 °F 31.6 °F 34.0 °F 89% 30.16 in 9.0 mi SE 6.9 mph - N/A   Mostly Cloudy
7:56 AM 37.0 °F 32.4 °F 34.0 °F 89% 30.14 in 8.0 mi SE 5.8 mph - N/A   Overcast
8:56 AM 37.9 °F - 35.1 °F 89% 30.15 in 8.0 mi Calm Calm - N/A   Overcast
9:56 AM 42.1 °F 37.7 °F 33.1 °F 70% 30.16 in 10.0 mi South 6.9 mph - N/A   Overcast
10:56 AM 45.0 °F 41.2 °F 33.1 °F 63% 30.14 in 10.0 mi South 6.9 mph - N/A   Overcast
11:56 AM 46.9 °F - 34.0 °F 61% 30.14 in 10.0 mi SSW 11.5 mph 17.3 mph 0.00 in Rain Light Rain
12:56 PM 48.0 °F - 35.1 °F 61% 30.12 in 10.0 mi SSW 10.4 mph 17.3 mph 0.00 in   Overcast
1:56 PM 46.9 °F - 37.0 °F 68% 30.12 in 10.0 mi SW 9.2 mph - 0.00 in Rain Light Rain
2:56 PM 44.1 °F 39.0 °F 37.9 °F 79% 30.13 in 7.0 mi SW 9.2 mph - 0.00 in Rain Light Rain
3:03 PM 44.6 °F 39.7 °F 39.2 °F 81% 30.10 in 4.0 mi SSW 9.2 mph - 0.01 in Rain Rain
3:39 PM 44.6 °F 40.7 °F 41.0 °F 87% 30.10 in 10.0 mi South 6.9 mph - 0.02 in Rain Light Rain
3:56 PM 45.0 °F 40.1 °F 41.0 °F 86% 30.13 in 10.0 mi South 9.2 mph - 0.02 in   Mostly Cloudy
4:23 PM 44.6 °F 40.7 °F 39.2 °F 81% 30.11 in 10.0 mi South 6.9 mph - N/A   Mostly Cloudy
4:56 PM 45.0 °F 40.6 °F 39.0 °F 80% 30.14 in 10.0 mi South 8.1 mph - N/A   Mostly Cloudy
5:43 PM 44.6 °F 42.2 °F 39.2 °F 81% 30.12 in 10.0 mi SSE 4.6 mph - N/A   Scattered Clouds
5:56 PM 43.0 °F 40.3 °F 37.9 °F 82% 30.15 in 10.0 mi South 4.6 mph - N/A   Clear
6:25 PM 42.8 °F 41.1 °F 37.4 °F 81% 30.14 in 10.0 mi SSE 3.5 mph - N/A   Mostly Cloudy
6:40 PM 42.8 °F 41.1 °F 37.4 °F 81% 30.15 in 10.0 mi South 3.5 mph - N/A   Overcast
6:56 PM 41.0 °F - 37.9 °F 89% 30.19 in 10.0 mi Calm Calm - N/A   Overcast
7:56 PM 39.0 °F 34.0 °F 37.0 °F 93% 30.19 in 10.0 mi SE 6.9 mph - N/A   Scattered Clouds
8:56 PM 39.0 °F - 37.0 °F 93% 30.21 in 10.0 mi Calm Calm - N/A   Clear
9:56 PM 32.0 °F - 30.9 °F 96% 30.22 in 7.0 mi Calm Calm - N/A   Partly Cloudy
10:56 PM 32.0 °F - 32.0 °F 100% 30.23 in 2.0 mi Calm Calm - N/A   Clear
11:13 PM 33.8 °F - 32.0 °F 93% 30.20 in 5.0 mi Calm Calm - N/A   Clear
11:22 PM 32.0 °F - 32.0 °F 100% 30.20 in 1.8 mi Calm Calm - N/A   Clear
11:30 PM 32.0 °F - 30.2 °F 93% 30.20 in 3.0 mi Calm Calm - N/A   Clear
11:56 PM 32.0 °F - 30.9 °F 96% 30.23 in 5.0 mi Calm Calm - N/A   Clear